sat.trackr.live / text

‹ back to catalog

STARLINK-32517

NORAD 61980 · 2024-210X

PAYLOAD ACTIVE UNKNOWN

§ Identity

Operator
Country
US
Launch date
2024-11-14
Launch site
AFETR
Launch vehicle
Mass (kg)
RCS (m²)

Purposes: comms

External: N2YO · Heavens-Above · Gunter

§ Orbital elements

Epoch: 2026-05-25T04:17:56.679936Z

Period
94.27 min
Inclination
42.9996°
Eccentricity
0.0000578
Mean motion
15.27591755 rev/d
Perigee alt
482.6 km
Apogee alt
483.4 km
Semi-major
6,861.2 km
B*
7.1399e-4
RAAN
108.2275°
Arg perigee
243.2044°
Mean anomaly
116.8749°
Rev number
8,652

§ Raw data

STARLINK-325171 61980U 24210X   26145.17912824  .00019444  00000+0  71399-3 0  99982 61980  42.9996 108.2275 0000578 243.2044 116.8749 15.27591755 86523

JSON: /api/v1/satellites/61980 · /tle

For live sub-satellite position, see the globe view (requires WebGL).

§ Visibility from observer

Set your observer location to see the next 7 days of passes ≥ 10°. The values pass through the URL so the page stays shareable.

No JS? Fill the form by hand. The geolocation button needs JavaScript.